• Join FlightAware (Why Join?)
  • Login
  • US Flag GB Flag 
18:54 EDT


 

Airport Tracker/Info


-or-


 

Live Flight TrackerFlight Track Log ✈ GJS3707 ✈ 20-Jul-2013 ✈ KORD - KBOI

Flight Track Log - Related Links

Times and Time Zones

All times are in EDT time to prevent confusion due to time zone crossing. See the GJS3707 flight status page for this flight to view local times or setup timezone preferences in your user account.

Time Position Orientation Groundspeed Altitude Reporting Facility
EDT Latitude Longitude Course Direction KTS MPH feet Rate Location/Type
11:08 42.0000 -87.9500 270° West 173 199 1,600  Level Chicago TRACON
11:09 42.0167 -88.0000 294° West 204 235 3,000 1,680 Climbing Chicago TRACON
11:10 42.0167 -88.0833 270° West 245 282 4,800 1,560 Climbing Chicago TRACON
11:11 41.9667 -88.3100 270° West  Level FlightAware Approximate
11:11 42.0336 -88.1428 291° West 243 280 5,600  Level Chicago Center
11:12 41.9667 -88.4467 270° West  Level FlightAware Approximate
11:12 42.0647 -88.2233 298° West 245 282 6,000  Level Chicago Center
11:13 41.9668 -88.5834 270° West  Level FlightAware Approximate
11:13 42.1094 -88.2967 309° West 254 292 8,100  Level Chicago Center
11:14 41.9667 -88.7253 270° West  Level FlightAware Approximate
11:14 42.1333 -88.3858 290° West 259 298 10,600  Level Chicago Center
11:15 42.1114 -88.4869 254° West 279 321 12,700 1,860 Climbing Chicago Center
11:16 42.0953 -88.6178 261° West 296 341 14,500 1,560 Climbing Chicago Center
11:17 42.0767 -88.7403 258° West 328 377 16,000 1,440 Climbing Chicago Center
11:18 42.0581 -88.8650 259° West 339 390 17,500 1,440 Climbing Chicago Center
11:19 42.0439 -88.9925 262° West 345 397 19,000 1,380 Climbing Chicago Center
11:20 42.0289 -89.1211 261° West 351 404 20,400 1,260 Climbing Chicago Center
11:21 42.0100 -89.2783 261° West 357 411 21,700 1,080 Climbing Chicago Center
11:22 41.9933 -89.4156 261° West 372 428 22,700 960 Climbing Chicago Center
11:23 41.9958 -89.5567 271° West 380 437 23,700 960 Climbing Chicago Center
11:24 42.0050 -89.6989 275° West 384 442 24,700 960 Climbing Chicago Center
11:25 42.0167 -89.8425 276° West 388 447 25,700 1,020 Climbing Chicago Center
11:26 42.0328 -90.0167 277° West 400 460 26,900 1,020 Climbing Chicago Center
11:27 42.0461 -90.1636 277° West 401 461 27,900 960 Climbing Chicago Center
11:28 42.0597 -90.3144 277° West 408 470 28,900 960 Climbing Chicago Center
11:29 42.0744 -90.4678 277° West 416 479 29,900 840 Climbing Chicago Center
11:30 42.0897 -90.6189 278° West 412 474 30,700 780 Climbing Chicago Center
11:31 42.1058 -90.8022 277° West 414 476 31,600 900 Climbing Chicago Center
11:32 42.1169 -90.9567 276° West 416 479 32,600 960 Climbing Chicago Center
11:33 42.1339 -91.1067 279° West 412 474 33,600 960 Climbing Chicago Center
11:34 42.1536 -91.2533 280° West 404 465 34,600 960 Climbing Chicago Center
11:35 42.1747 -91.3953 281° West 391 450 35,600 660 Climbing Chicago Center
11:36 42.1997 -91.5333 284° West 383 441 36,000 180 Climbing Chicago Center
11:37 42.2519 -91.6992 293° West 399 459 36,000  Level Chicago Center
11:38 42.2939 -91.8411 292° West 405 466 36,000  Level Chicago Center
11:40 42.3386 -91.9853 293° West 413 475 36,000  Level Chicago Center
11:41 42.3825 -92.1333 292° West 422 486 36,000  Level Chicago Center
11:42 42.4264 -92.2811 292° West 424 488 36,000  Level Chicago Center
11:43 42.4697 -92.4283 292° West 424 488 36,000  Level Chicago Center
11:44 42.5211 -92.6025 292° West 419 482 36,000  Level Chicago Center
11:45 42.5633 -92.7483 292° West 417 480 36,000  Level Chicago Center
11:46 42.6064 -92.8947 292° West 421 484 36,000  Level Chicago Center
11:47 42.6486 -93.0389 292° West 417 480 36,000  Level Chicago Center
11:48 42.6903 -93.1833 291° West 415 478 36,000  Level Chicago Center
11:49 42.7392 -93.3583 291° West 415 478 36,000  Level Chicago Center
11:50 42.7725 -93.4769 291° West 418 481 36,000  Level Minneapolis Center
11:51 42.8219 -93.6517 291° West 417 480 36,000  Level Minneapolis Center
11:52 42.8628 -93.7983 291° West 417 480 36,000  Level Minneapolis Center
11:53 42.9039 -93.9431 291° West 415 478 36,000  Level Minneapolis Center
11:54 42.9472 -94.0881 292° West 415 478 36,000  Level Minneapolis Center
11:55 42.9928 -94.2622 290° West 410 472 36,000  Level Minneapolis Center
11:56 43.0267 -94.3967 289° West 407 468 36,000  Level Minneapolis Center
11:57 43.0831 -94.5978 291° West 403 464 36,000  Level Minneapolis Center
11:58 43.1242 -94.7364 292° West 396 456 36,000  Level Minneapolis Center
12:00 43.1619 -94.8811 290° West 401 461 36,000  Level Minneapolis Center
12:01 43.2081 -95.0583 290° West 409 471 36,000  Level Minneapolis Center
12:02 43.2461 -95.2033 290° West 407 468 36,000  Level Minneapolis Center
12:03 43.2850 -95.3492 290° West 406 467 36,000 600 Level Minneapolis Center
12:04 43.3300 -95.5247 289° West 405 466 37,300 960 Climbing Minneapolis Center
12:05 43.3667 -95.6622 290° West 390 449 38,000 300 Climbing Minneapolis Center
12:06 43.4017 -95.8006 289° West 384 442 38,000  Level Minneapolis Center
12:07 43.4381 -95.9406 290° West 385 443 38,000  Level Minneapolis Center
12:08 43.4736 -96.0794 289° West 386 444 38,000  Level Minneapolis Center
12:09 43.5089 -96.2189 289° West 385 443 38,000  Level Minneapolis Center
12:10 43.5522 -96.3881 290° West 387 445 38,000  Level Minneapolis Center
12:11 43.5797 -96.4994 289° West 385 443 38,000  Level Minneapolis Center
12:12 43.6222 -96.6692 289° West 388 447 38,000  Level Minneapolis Center
12:13 43.6519 -96.8122 286° West 387 445 38,000  Level Minneapolis Center
12:14 43.6633 -96.9592 276° West 384 442 38,000  Level Minneapolis Center
12:15 43.6750 -97.1064 276° West 386 444 38,000  Level Minneapolis Center
12:16 43.6858 -97.2544 276° West 387 445 38,000  Level Minneapolis Center
12:17 43.6992 -97.4339 276° West 391 450 38,000  Level Minneapolis Center
12:18 43.7106 -97.5822 276° West 389 448 38,000  Level Minneapolis Center
12:19 43.7214 -97.7333 276° West 394 453 38,000  Level Minneapolis Center
12:20 43.7325 -97.8850 276° West 396 456 38,000  Level Minneapolis Center
12:21 43.7428 -98.0378 275° West 399 459 38,000  Level Minneapolis Center
12:22 43.7506 -98.1603 275° West 400 460 38,000  Level Minneapolis Center
12:23 43.7658 -98.3742 276° West 399 459 38,000  Level Minneapolis Center
12:24 43.7753 -98.5272 275° West 399 459 38,000  Level Minneapolis Center
12:26 43.7856 -98.6789 275° West 396 456 38,000  Level Minneapolis Center
12:27 43.7967 -98.8500 275° West 391 450 38,000  Level Minneapolis Center
12:28 43.8072 -99.0331 275° West 397 457 38,000  Level Minneapolis Center
12:29 43.8161 -99.1828 275° West 391 450 38,000  Level Minneapolis Center
12:30 43.8244 -99.3325 274° West 388 447 38,000  Level Minneapolis Center
12:31 43.8328 -99.4808 275° West 387 445 38,000  Level Minneapolis Center
12:32 43.8403 -99.6331 274° West 391 450 38,000  Level Minneapolis Center
12:33 43.8497 -99.7808 275° West 388 447 38,000  Level Minneapolis Center
12:34 43.8561 -99.9286 273° West 385 443 38,000  Level Minneapolis Center
12:35 43.8656 -100.1072 274° West 385 443 38,000  Level Minneapolis Center
12:36 43.8753 -100.2881 274° West 388 447 38,000  Level Minneapolis Center
12:37 43.8811 -100.4097 274° West 391 450 38,000  Level Minneapolis Center
12:38 43.8900 -100.5914 274° West 393 452 38,000  Level Minneapolis Center
12:39 43.8969 -100.7431 274° West 393 452 38,000  Level Minneapolis Center
12:40 43.9033 -100.8958 273° West 395 455 38,000  Level Minneapolis Center
12:41 43.9097 -101.0481 273° West 396 456 38,000  Level Minneapolis Center
12:42 43.9178 -101.2331 274° West 398 458 38,000  Level Minneapolis Center
12:43 43.9217 -101.3864 272° West 398 458 38,000  Level Minneapolis Center
12:44 43.9267 -101.4800 274° West 400 460 38,000  Level Denver Center
12:45 43.9336 -101.6364 274° West 406 467 38,000  Level Denver Center
12:46 43.9361 -101.7894 271° West 399 459 38,000  Level Denver Center
12:47 43.9400 -101.9419 272° West 396 456 38,000  Level Denver Center
12:48 43.9447 -102.0967 272° West 399 459 38,000  Level Denver Center
12:49 43.9514 -102.2542 273° West 405 466 38,000  Level Denver Center
12:50 43.9575 -102.4408 273° West 404 465 38,000  Level Denver Center
12:51 43.9636 -102.6283 273° West 404 465 38,000  Level Denver Center
12:52 43.9697 -102.7847 273° West 404 465 38,000  Level Denver Center
12:53 43.9753 -102.9525 273° West 406 467 38,000  Level Denver Center
12:55 43.9797 -103.1008 272° West 404 465 38,000  Level Denver Center
12:56 43.9800 -103.2236 270° West 403 464 38,000  Level Denver Center
12:57 43.9844 -103.4200 272° West 400 460 38,000  Level Denver Center
12:58 43.9883 -103.5947 272° West 406 467 38,000  Level Denver Center
12:59 43.9894 -103.7417 271° West 402 463 38,000  Level Denver Center
13:00 43.9922 -103.9153 271° West 404 465 38,000  Level Denver Center
13:01 43.9953 -104.0658 272° West 407 468 38,000  Level Denver Center
13:02 43.9967 -104.2375 271° West 403 464 38,000  Level Denver Center
13:03 43.9978 -104.3858 271° West 401 461 38,000  Level Denver Center
13:04 44.0011 -104.5586 272° West 401 461 38,000  Level Denver Center
13:05 44.0008 -104.7067 270° West 402 463 38,000  Level Denver Center
13:06 44.0025 -104.8783 271° West 400 460 38,000  Level Denver Center
13:07 44.0036 -105.0267 271° West 402 463 38,000  Level Denver Center
13:08 44.0044 -105.1992 270° West 402 463 38,000  Level Denver Center
13:09 44.0050 -105.3467 270° West 401 461 38,000  Level Denver Center
13:10 44.0050 -105.5194 270° West 401 461 38,000  Level Denver Center
13:11 44.0053 -105.6658 270° West 400 460 38,000  Level Denver Center
13:12 44.0042 -105.8139 269° West 400 460 38,000  Level Denver Center
13:13 44.0033 -106.0122 270° West 402 463 38,000  Level Denver Center
13:14 44.0033 -106.1839 270° West 401 461 38,000  Level Denver Center
13:16 44.0008 -106.3333 269° West 404 465 38,000  Level Denver Center
13:17 44.0036 -106.5317 271° West 405 466 38,000  Level Denver Center
13:18 44.0089 -106.6539 273° West 402 463 38,000  Level Denver Center
13:19 44.0167 -106.8500 273° West 398 458 38,000  Level Denver Center
13:20 44.0208 -107.0042 272° West 399 459 38,000  Level Denver Center
13:21 44.0261 -107.1625 273° West 408 470 38,000  Level Denver Center
13:22 44.0333 -107.3511 273° West 406 467 38,000  Level Salt Lake Center
13:23 44.0369 -107.5078 272° West 405 466 38,000  Level Salt Lake Center
13:24 44.0422 -107.6628 273° West 402 463 38,000  Level Salt Lake Center
13:25 44.0478 -107.8186 273° West 403 464 38,000  Level Salt Lake Center
13:26 44.0514 -107.9753 272° West 404 465 38,000  Level Salt Lake Center
13:27 44.0556 -108.1289 272° West 399 459 38,000  Level Salt Lake Center
13:28 44.0600 -108.2847 272° West 403 464 38,000  Level Salt Lake Center
13:29 44.0625 -108.4706 271° West 401 461 38,000  Level Salt Lake Center
13:30 44.0581 -108.6269 268° West 404 465 38,000  Level Salt Lake Center
13:31 44.0536 -108.7808 268° West 400 460 38,000  Level Salt Lake Center
13:32 44.0475 -108.9356 267° West 402 463 38,000  Level Salt Lake Center
13:33 44.0425 -109.0917 268° West 403 464 38,000  Level Salt Lake Center
13:34 44.0372 -109.2467 267° West 402 463 38,000  Level Salt Lake Center
13:35 44.0300 -109.4339 267° West 405 466 38,000  Level Salt Lake Center
13:36 44.0236 -109.5944 267° West 405 466 38,000  Level Salt Lake Center
13:37 44.0183 -109.7422 267° West 403 464 38,000  Level Salt Lake Center
13:38 44.0122 -109.8908 267° West 403 464 38,000  Level Salt Lake Center
13:39 44.0044 -110.0642 266° West 403 464 38,000  Level Salt Lake Center
13:40 43.9972 -110.2128 266° West 403 464 38,000  Level Salt Lake Center
13:42 43.9900 -110.3839 267° West 400 460 38,000  Level Salt Lake Center
13:43 43.9842 -110.5325 267° West 402 463 38,000  Level Salt Lake Center
13:44 43.9742 -110.7067 265° West 405 466 38,000  Level Salt Lake Center
13:45 43.9667 -110.8558 266° West 405 466 38,000  Level Salt Lake Center
13:46 43.9578 -111.0300 266° West 405 466 38,000  Level Salt Lake Center
13:47 43.9486 -111.1803 265° West 406 467 38,000  Level Salt Lake Center
13:48 43.9397 -111.3550 266° West 405 466 38,000  Level Salt Lake Center
13:49 43.9308 -111.5047 265° West 405 466 38,000  Level Salt Lake Center
13:50 43.9222 -111.6553 266° West 406 467 38,000  Level Salt Lake Center
13:51 43.9128 -111.8300 266° West 406 467 38,000  Level Salt Lake Center
13:52 43.9042 -111.9797 265° West 407 468 38,000  Level Salt Lake Center
13:53 43.8919 -112.1525 264° West 404 465 38,000  Level Salt Lake Center
13:54 43.8831 -112.3031 265° West 408 470 38,000  Level Salt Lake Center
13:55 43.8725 -112.4789 265° West 409 471 38,000  Level Salt Lake Center
13:56 43.8614 -112.6289 264° West 409 471 38,000  Level Salt Lake Center
13:57 43.8503 -112.8036 265° West 409 471 38,000  Level Salt Lake Center
13:58 43.8394 -112.9531 264° West 408 470 38,000  Level Salt Lake Center
13:59 43.8292 -113.1019 265° West 407 468 38,000  Level Salt Lake Center
14:00 43.8156 -113.2775 264° West 411 473 38,000  Level Salt Lake Center
14:01 43.8050 -113.4278 264° West 411 473 38,000  Level Salt Lake Center
14:02 43.7919 -113.6064 264° West 422 486 38,000  Level Salt Lake Center
14:03 43.7806 -113.7567 264° West 414 476 38,000  Level Salt Lake Center
14:04 43.7681 -113.9242 264° West 413 475 38,000  Level Salt Lake Center
14:05 43.7533 -114.1000 263° West 414 476 38,000 -900 Level Salt Lake Center
14:06 43.7419 -114.2503 264° West 410 472 36,200 -2,160 Descending Salt Lake Center
14:07 43.7292 -114.3978 263° West 404 465 33,500 -3,000 Descending Salt Lake Center
14:08 43.7153 -114.5644 263° West 391 450 30,100 -3,060 Descending Salt Lake Center
14:09 43.7036 -114.7069 264° West 388 447 27,200 -3,000 Descending Salt Lake Center
14:10 43.6900 -114.8694 263° West 382 440 23,900 -3,000 Descending Salt Lake Center
14:12 43.6778 -115.0078 263° West 377 434 21,000 -3,000 Descending Salt Lake Center
14:13 43.6639 -115.1656 263° West 361 415 17,700 -2,940 Descending Salt Lake Center
14:14 43.6522 -115.3011 263° West 344 396 15,000 -2,280 Descending Salt Lake Center
14:15 43.6414 -115.4197 263° West 328 377 13,100 -1,260 Descending Salt Lake Center
14:16 43.6078 -115.5356 248° West 322 371 12,400 -600 Descending Salt Lake Center
14:17 43.5547 -115.6450 236° Southwest 329 379 11,900 -780 Descending Salt Lake Center
14:18 43.5117 -115.7517 241° Southwest 300 345 10,800 -1,680 Descending Salt Lake Center
14:19 43.5081 -115.8594 267° West 271 312 8,500 -2,100 Descending Salt Lake Center
14:20 43.5072 -115.9667 269° West 269 310 6,500 -1,980 Descending Salt Lake Center